FW2780 Weather Reports


time (UTC)temp
F
wind
direction
speed
knots
gust
knots
rain 1hr
in
rain 24hr
in
rain mn
in
humidity
%
barometer
mb
20260508023015 48 300 1.7 3.5 0.02 0.83 0.83 95 1002.9
20260508021514 47 301 0.0 0.9 0.02 0.83 0.83 95 1002.8
20260508020014 47 301 0.0 0.0 0.02 0.83 0.83 95 1003.5
20260508014513 47 301 0.0 0.9 0.02 0.83 0.83 94 1003.6
20260508013012 48 301 0.0 0.9 0.02 0.82 0.82 95 1003.3
20260508011512 48 301 0.0 0.9 0.02 0.81 0.81 95 1003.2
20260508010021 47 301 0.0 0.9 0.04 0.81 0.81 94 1003.3
20260508004516 48 301 0.0 0.0 0.04 0.80 0.80 94 1003.4
20260508003009 47 301 0.0 1.7 0.04 0.80 0.80 94 1003.5
20260508001509 47 300 2.6 7.0 0.03 0.79 0.79 93 1003.2
20260508000122 48 300 2.6 7.0 0.02 0.77 0.77 93 1003.3
20260507234508 49 243 0.0 6.1 0.01 0.76 0.76 93 1002.8
20260507233003 48 260 2.6 7.8 0.00 0.76 0.76 92 1002.7
20260507231502 48 277 5.2 15.6 0.00 0.76 0.76 91 1002.5
20260507230104 49 60 10.4 21.7 0.00 0.76 0.76 85 1002.3
20260507224559 54 172 3.5 8.7 0.00 0.76 0.76 90 1001.6
20260507223103 54 178 3.5 10.4 0.00 0.76 0.76 90 1001.6
20260507221602 54 181 4.3 9.6 0.00 0.76 0.76 90 1001.6
20260507220057 54 172 3.5 10.4 0.00 0.76 0.76 90 1001.5
20260507214556 54 184 3.5 13.0 0.00 0.76 0.76 90 1001.5
20260507213056 54 183 3.5 10.4 0.00 0.76 0.76 91 1001.4
20260507211601 54 183 3.5 12.2 0.01 0.76 0.76 91 1001.4
20260507210054 54 161 5.2 12.2 0.02 0.76 0.76 92 1001.4
20260507204555 54 137 2.6 13.0 0.07 0.76 0.76 92 1001.5
20260507203053 54 103 6.1 13.9 0.12 0.76 0.76 92 1000.7
20260507201552 54 129 7.0 15.6 0.16 0.75 0.75 93 1000.4
20260507200047 54 167 5.2 17.4 0.17 0.73 0.73 92 1001.2
20260507194544 54 159 6.1 13.9 0.17 0.69 0.69 92 1002.0
20260507193046 54 101 4.3 10.4 0.18 0.64 0.64 92 1003.1
20260507191538 55 183 5.2 13.0 0.20 0.59 0.59 92 1003.2
20260507190038 55 160 4.3 12.2 0.24 0.55 0.55 91 1003.3
20260507184533 56 212 6.1 11.3 0.37 0.51 0.51 91 1003.5
20260507183030 56 113 4.3 14.8 0.41 0.46 0.46 91 1003.7
20260507181528 57 196 4.3 8.7 0.38 0.39 0.39 90 1004.0
20260507180025 57 271 0.9 2.6 0.31 0.31 0.31 89 1004.3
20260507174542 58 185 1.7 7.0 0.13 0.13 0.13 88 1004.0
20260507173025 59 235 5.2 14.8 0.05 0.05 0.05 86 1003.5
20260507171522 60 283 2.6 16.5 0.00 0.00 0.00 83 1003.4
20260507170024 61 90 2.6 18.2 0.00 0.00 0.00 79 1002.9
20260507164521 63 227 4.3 19.1 0.00 0.00 0.00 75 1002.9
20260507163022 62 204 7.0 23.5 0.00 0.00 0.00 76 1002.7
20260507161520 62 117 7.0 20.0 0.00 0.00 0.00 75 1003.3
20260507160016 63 360 5.2 18.2 0.00 0.00 0.00 73 1003.3
20260507154518 65 211 7.0 17.4 0.00 0.00 0.00 70 1003.6
20260507153017 64 176 7.8 24.3 0.00 0.00 0.00 72 1004.2
20260507151510 64 60 8.7 22.6 0.00 0.00 0.00 73 1004.5
20260507150009 63 152 13.0 27.8 0.00 0.00 0.00 73 1004.7
20260507144508 63 227 7.8 30.4 0.00 0.00 0.00 73 1004.7
20260507143007 64 131 5.2 18.2 0.00 0.00 0.00 73 1005.0
20260507141505 63 76 9.6 27.8 0.00 0.00 0.00 74 1005.0
20260507140008 63 319 7.0 16.5 0.00 0.00 0.00 73 1005.8
20260507134503 63 196 7.8 24.3 0.00 0.00 0.00 74 1005.5
20260507133002 63 249 7.0 30.4 0.00 0.00 0.00 75 1006.0
20260507131622 64 130 7.8 30.4 0.00 0.00 0.00 74 1005.5
20260507130108 64 92 8.7 22.6 0.00 0.00 0.00 74 1005.7
20260507124602 64 143 7.0 20.0 0.00 0.00 0.00 74 1006.0
20260507123101 62 219 7.8 20.9 0.00 0.00 0.00 76 1006.4
20260507121550 61 175 6.1 27.8 0.00 0.00 0.00 77 1006.8
20260507120047 60 78 6.1 17.4 0.00 0.00 0.00 79 1007.3
20260507114547 60 190 6.1 16.5 0.00 0.00 0.00 79 1007.8
20260507113106 60 201 5.2 14.8 0.00 0.00 0.00 79 1008.2
20260507111545 59 154 5.2 15.6 0.00 0.00 0.00 82 1008.2
20260507110043 58 140 3.5 9.6 0.00 0.00 0.00 82 1008.5
20260507104546 58 161 8.7 18.2 0.00 0.00 0.00 82 1007.7
20260507103037 58 156 4.3 16.5 0.00 0.00 0.00 82 1008.5
20260507101536 58 161 7.8 17.4 0.00 0.00 0.00 83 1009.2
20260507100043 58 77 8.7 20.0 0.00 0.00 0.00 83 1008.9
20260507094529 58 106 6.1 20.0 0.00 0.00 0.00 82 1009.5
20260507093031 58 95 3.5 16.5 0.00 0.00 0.00 83 1009.9
20260507091524 58 83 7.0 16.5 0.00 0.00 0.00 83 1010.2
20260507090022 58 148 7.8 17.4 0.00 0.00 0.00 83 1009.9
20260507084542 58 150 2.6 10.4 0.00 0.00 0.00 82 1010.7
20260507083024 58 142 7.8 14.8 0.00 0.00 0.00 82 1010.0
20260507081516 58 100 7.0 16.5 0.00 0.00 0.00 82 1010.4
20260507080015 58 100 2.6 11.3 0.00 0.00 0.00 81 1010.9
20260507074511 58 188 1.7 7.8 0.00 0.00 0.00 80 1011.1
20260507073009 58 184 0.9 10.4 0.00 0.00 0.00 79 1011.7
20260507071514 59 89 4.3 13.9 0.00 0.00 0.00 78 1011.3
20260507070015 59 92 4.3 10.4 0.00 0.00 0.00 78 1011.7
20260507064505 59 142 6.1 16.5 0.00 0.00 0.00 77 1011.4
20260507063001 59 150 5.2 12.2 0.00 0.00 0.00 76 1011.8
20260507061557 59 122 4.3 10.4 0.00 0.00 0.00 73 1012.0
20260507060055 59 170 3.5 10.4 0.00 0.00 0.00 70 1012.0
20260507054553 59 152 3.5 11.3 0.00 0.00 0.00 68 1012.6
20260507053049 59 179 1.7 7.8 0.00 0.00 0.00 69 1012.8
20260507051547 59 156 4.3 8.7 0.00 0.00 0.00 70 1013.3
20260507044550 61 153 3.5 8.7 0.00 0.00 0.00 65 1013.8
20260507043038 61 163 3.5 12.2 0.00 0.00 0.00 65 1013.9
20260507041535 62 291 1.7 18.2 0.00 0.00 0.00 67 1014.4
20260507040033 61 223 4.3 12.2 0.00 0.00 0.00 68 1014.7
20260507034538 61 319 2.6 14.8 0.00 0.00 0.00 69 1014.9
20260507033037 61 132 3.5 11.3 0.00 0.00 0.00 70 1015.0
20260507031532 61 240 6.1 18.2 0.00 0.00 0.00 70 1015.2
20260507030026 61 167 1.7 13.9 0.00 0.00 0.00 70 1015.4
20260507024525 61 256 6.1 13.9 0.00 0.00 0.00 69 1015.5